sat.trackr.live / text

‹ back to catalog

STARLINK-5507

NORAD 55638 · 2023-021L

PAYLOAD ACTIVE UNKNOWN

§ Identity

Operator
Country
US
Launch date
2023-02-17
Launch site
AFWTR
Launch vehicle
Mass (kg)
RCS (m²)

Purposes: comms

External: N2YO · Heavens-Above · Gunter

§ Orbital elements

Epoch: 2026-05-25T00:37:10.512768Z

Period
96.11 min
Inclination
70.0000°
Eccentricity
0.0002668
Mean motion
14.98333524 rev/d
Perigee alt
570.2 km
Apogee alt
573.9 km
Semi-major
6,950.2 km
B*
3.1987e-5
RAAN
11.9456°
Arg perigee
270.6247°
Mean anomaly
89.4606°
Rev number
17,973

§ Raw data

STARLINK-55071 55638U 23021L   26145.02581612  .00000289  00000+0  31987-4 0  99982 55638  70.0000  11.9456 0002668 270.6247  89.4606 14.98333524179734

JSON: /api/v1/satellites/55638 · /tle

For live sub-satellite position, see the globe view (requires WebGL).

§ Visibility from observer

Set your observer location to see the next 7 days of passes ≥ 10°. The values pass through the URL so the page stays shareable.

No JS? Fill the form by hand. The geolocation button needs JavaScript.